Temp
22 24 24 26 30 33 32 31 33 31 31 32 32 31 31 29 30 28 27 26 26 25 23 22 21 21 21 21 21 21 20 20 20 21 21 20 21 21 21 21 21 21 21 21 21 21 21 21 21
25 24 25 29 32 33 32 32 32 32 32 32 31 31 31 28 28 28 27 26 26 26 25 24 21 21 21 21 21 21 21 20 20 21 21 20 20 21 20 21 21 21 22 21 21 22 21 21 21
24 24 28 31 33 33 32 33 32 32 32 31 30 31 30 28 28 28 26 25 26 26 26 22 21 21 21 21 21 21 21 21 21 20 20 20 20 21 21 21 21 21 21 21 21 21 21 21 21
26 25 27 30 31 31 33 33 33 31 31 31 31 28 28 28 28 27 25 25 26 26 25 22 21 21 21 21 21 21 21 21 21 21 21 21 21 21 20 21 21 21 21 21 21 21 21 21 21
27 26 28 31 31 32 33 33 33 32 31 30 31 29 27 26 26 26 25 26 26 27 25 23 21 21 21 21 21 21 21 21 21 21 21 21 21 21 21 21 21 21 22 22 21 21 21 21 21
29 29 30 30 30 31 32 33 32 31 31 30 30 29 27 26 26 26 26 26 27 27 26 23 21 21 21 21 21 21 21 21 21 21 21 21 21 21 21 21 21 21 21 21 21 21 21 21 20
30 30 29 29 29 30 31 32 31 31 31 31 31 29 27 28 26 26 26 26 26 26 26 25 24 22 21 21 22 22 22 21 22 21 21 21 21 21 21 21 21 21 21 21 21 21 21 21 21
30 29 27 28 29 29 30 31 31 31 30 31 32 29 27 27 26 25 26 26 26 26 25 24 25 25 24 23 22 22 22 21 21 21 21 21 21 21 22 23 21 21 21 21 22 22 22 22 22
30 28 26 27 26 28 30 30 30 31 30 31 30 31 29 26 26 26 26 26 25 25 25 23 25 24 22 22 22 22 22 21 21 21 21 23 24 24 23 22 21 21 21 22 22 22 23 23 22
31 30 28 28 26 27 28 30 28 30 30 29 29 29 27 26 27 27 27 27 26 25 25 24 25 23 22 23 22 22 21 22 22 21 23 24 24 23 24 22 22 22 23 23 23 23 23 24 26
31 29 30 28 27 24 28 30 31 31 30 31 29 28 28 27 27 28 28 27 27 26 25 24 22 23 23 22 23 22 22 22 22 22 23 23 24 24 24 24 24 24 23 25 25 25 26 25 26
29 30 30 27 27 27 28 30 29 31 30 31 31 30 29 29 29 29 28 27 26 25 25 25 22 22 21 23 23 23 24 24 24 23 22 23 24 24 25 25 24 25 25 25 25 26 25 25 25
31 29 28 28 28 25 26 27 29 27 30 31 31 30 29 30 29 28 28 27 26 26 25 25 23 21 21 21 24 24 24 24 23 23 22 24 25 24 25 24 25 25 26 26 26 26 26 26 27
31 30 28 28 28 26 23 24 25 24 30 30 30 30 30 30 29 28 27 27 26 26 25 25 24 22 22 21 22 23 24 23 24 24 23 23 24 24 25 25 26 25 26 26 26 26 27 27 27
30 29 29 28 28 26 23 22 23 23 28 29 30 30 30 30 29 28 27 27 26 26 25 24 24 23 22 22 22 23 24 24 24 24 23 23 24 24 24 25 26 26 25 25 26 26 27 28 28
30 30 29 27 27 27 26 23 23 22 25 29 30 30 30 30 29 28 27 27 26 26 25 24 25 24 23 23 23 24 24 24 24 24 24 23 23 23 24 26 26 25 26 26 27 28 28 28 28
31 31 30 27 27 27 27 27 23 23 22 26 30 31 30 30 29 28 28 27 27 26 24 24 24 24 23 22 23 23 23 24 24 24 24 23 24 23 25 26 25 25 26 27 28 27 28 28 29
32 31 30 29 27 27 27 26 26 22 22 23 29 31 31 31 30 28 28 27 27 26 24 23 22 22 22 22 22 23 24 24 24 24 25 23 24 24 24 25 25 26 27 27 27 27 27 28 29
32 31 30 29 27 28 28 28 26 25 23 22 26 30 31 31 31 29 28 27 27 26 25 24 23 22 23 23 24 24 25 24 24 25 24 23 24 24 23 25 25 26 27 26 26 27 27 28 27
32 31 30 29 28 28 28 28 26 25 24 22 24 28 31 32 32 30 29 28 27 26 25 23 23 22 23 24 25 25 25 25 25 25 24 24 24 24 24 24 25 25 27 26 26 26 28 28 28
32 32 31 30 28 28 28 28 26 25 25 22 26 29 32 32 32 31 29 29 28 26 26 24 24 23 23 24 24 24 23 23 24 24 25 24 24 24 23 24 24 25 25 27 26 26 27 29 28
32 32 30 29 30 30 29 30 28 25 25 23 29 29 32 32 32 32 30 29 28 27 26 25 24 23 23 23 24 25 25 26 26 25 25 25 24 24 24 23 24 24 25 25 26 26 26 26 29
32 31 31 30 30 30 31 30 29 26 27 27 28 30 31 32 32 32 31 29 29 28 26 25 24 23 24 23 25 23 25 26 25 25 24 25 23 24 24 23 23 24 25 25 25 25 25 27 27
32 31 30 30 31 30 32 31 31 29 29 31 29 30 31 33 32 32 31 30 29 28 27 26 24 23 24 23 23 24 25 26 26 25 25 25 25 24 24 24 23 24 24 24 25 24 24 25 25
31 31 30 30 30 31 31 30 32 31 31 31 31 30 30 32 33 32 31 30 29 28 27 26 25 24 23 24 24 24 24 24 24 24 25 26 26 26 25 24 24 24 23 24 24 24 24 25 26
31 32 32 28 28 29 30 29 31 31 31 31 32 33 29 31 33 33 31 30 29 28 27 27 25 24 24 24 24 24 23 23 24 24 26 26 26 26 26 24 24 24 24 24 24 25 25 25 26
32 31 34 31 31 31 32 32 32 32 30 30 31 31 30 30 32 33 31 30 29 28 27 27 26 25 24 24 24 24 24 24 26 26 24 25 25 26 25 24 24 24 24 24 24 25 25 25 25
31 33 31 31 27 28 32 32 31 29 29 29 30 30 30 29 27 32 32 30 30 29 28 27 26 25 25 25 24 24 24 24 24 24 24 25 25 24 25 24 24 24 24 24 24 25 25 24 25
31 31 31 31 30 26 28 28 29 27 28 29 29 30 29 29 27 31 31 30 30 29 28 27 26 26 25 25 25 25 25 25 24 23 24 24 24 24 24 24 24 24 24 24 24 24 25 25 25
31 31 32 29 26 31 23 30 29 27 28 29 29 30 30 26 26 29 29 30 29 29 29 28 27 26 26 26 25 25 25 25 25 24 24 24 23 24 23 23 24 24 24 24 24 24 25 24 25
Height
783 784 783 779 781 764 785 785 769 783 785 774 777 782 787 790 794 814 809 815 818 821 825 828 828 830 832 833 833 834 836 838 838 840 839 841 841 841 842 842 843 843 844 845 845 845 846 846 848
783 783 782 771 774 783 788 773 781 780 776 777 781 784 786 802 797 805 811 817 819 822 825 828 830 832 834 835 836 837 839 840 841 842 843 843 843 845 845 845 846 846 846 847 848 846 848 849 850
783 782 778 770 769 782 787 773 776 777 777 780 789 783 790 804 803 806 814 819 821 824 827 831 832 834 836 837 839 840 841 843 844 844 846 846 846 847 848 848 848 848 848 849 850 851 852 853 853
782 783 779 781 784 780 773 771 772 780 780 781 784 799 799 803 807 811 818 821 822 826 828 833 835 836 838 839 841 843 843 845 846 847 848 849 850 851 851 850 850 851 852 853 853 855 855 855 855
780 780 787 785 786 775 769 769 772 782 783 787 784 798 805 810 812 816 820 822 824 826 831 835 837 838 839 841 843 844 846 848 849 850 852 853 853 854 853 853 854 855 855 855 855 857 856 857 857
776 774 786 795 792 779 774 771 775 783 785 789 791 797 808 812 814 818 822 824 826 828 831 837 838 839 841 843 844 846 848 850 852 853 854 855 855 856 856 856 858 858 858 859 858 859 859 859 859
774 778 792 790 792 789 784 774 783 783 785 789 787 800 810 811 817 820 823 826 829 831 833 837 840 842 843 845 847 849 850 851 853 855 856 857 858 858 859 860 860 860 861 861 861 861 862 862 861
773 782 799 794 796 799 786 782 781 783 793 786 787 802 812 812 818 822 825 827 830 832 835 838 839 842 845 848 850 852 852 854 855 857 858 859 860 860 861 861 862 862 863 863 863 863 864 863 863
772 792 804 798 804 798 783 788 785 785 790 788 792 789 801 814 819 822 825 828 832 833 836 840 840 844 846 849 851 854 854 856 857 859 860 861 861 863 864 864 864 865 865 865 865 866 866 865 865
771 787 794 786 794 795 792 787 794 791 792 797 798 800 809 815 818 820 823 827 831 834 837 840 841 845 848 850 853 854 855 858 861 862 863 864 865 865 866 866 866 866 866 867 867 867 867 865 865
772 791 782 786 790 796 792 790 784 789 797 792 801 804 810 815 817 819 822 825 829 834 837 840 844 845 847 850 854 856 857 860 863 865 865 866 867 867 868 868 868 869 868 868 868 868 867 867 866
786 781 781 791 792 795 796 789 794 789 793 789 794 803 808 813 815 817 821 826 829 834 837 839 843 845 847 851 854 855 857 861 863 866 867 868 868 869 868 869 870 870 870 870 869 868 868 868 868
777 784 786 787 789 801 800 799 797 803 792 792 798 804 808 811 814 818 822 827 831 834 836 839 844 847 848 851 853 856 859 861 864 866 868 868 868 870 869 870 870 871 870 870 870 869 868 868 868
776 783 789 789 793 799 810 810 806 810 796 799 801 804 806 810 814 820 823 827 830 833 836 840 844 847 848 852 855 858 861 863 864 866 868 869 869 870 870 871 871 871 871 870 870 870 869 868 869
778 791 790 793 794 803 811 826 819 814 801 802 803 804 807 811 815 819 823 827 830 833 837 841 844 847 850 853 856 858 861 862 864 866 868 869 870 870 871 871 871 871 871 871 871 871 870 869 870
784 784 799 798 796 800 806 826 818 815 812 804 802 804 808 811 816 819 823 826 830 833 838 842 843 847 850 853 856 858 860 862 864 866 868 869 869 870 871 871 871 871 871 870 870 869 869 869 870
784 787 793 805 797 800 802 805 811 815 819 813 801 802 806 810 815 819 822 826 830 834 839 841 843 847 850 854 856 858 861 862 864 866 868 869 870 871 871 871 872 871 871 870 869 870 870 870 870
785 788 790 798 801 798 803 807 806 815 819 820 803 799 803 805 809 816 821 825 829 834 838 842 845 847 851 853 855 858 860 862 864 866 868 869 870 871 872 872 872 871 870 870 870 870 871 870 870
775 784 790 791 795 796 797 799 803 808 818 821 813 796 798 801 803 811 818 823 827 833 837 841 845 847 850 852 854 856 858 861 864 866 868 870 871 871 871 872 872 871 871 871 871 871 872 871 872
779 785 793 794 795 799 797 797 800 805 809 816 816 803 793 796 799 808 815 820 825 830 835 841 844 847 849 851 853 854 857 860 862 864 867 870 871 873 872 872 872 872 871 872 872 872 870 870 872
779 782 787 792 794 793 798 797 803 803 803 812 807 799 788 791 796 803 811 816 822 828 833 838 842 846 848 850 853 855 858 860 862 864 865 868 870 871 871 871 872 872 872 871 872 872 871 868 872
780 776 785 794 795 800 788 794 791 799 802 807 793 793 785 787 793 798 806 812 818 824 831 836 840 844 848 850 851 853 855 857 859 862 863 866 868 869 870 871 872 872 872 873 873 872 873 871 869
778 774 783 786 790 789 781 794 783 791 793 792 791 784 783 785 789 793 801 808 814 821 827 833 838 842 845 848 850 853 853 855 859 860 863 864 867 868 870 871 871 872 872 873 873 873 873 872 871
772 782 786 786 786 798 773 783 772 783 780 772 778 779 778 778 784 791 797 805 811 818 824 830 835 839 843 847 850 852 852 853 856 859 861 862 864 867 868 869 870 871 872 872 873 873 873 873 873
779 782 798 803 801 795 777 787 769 765 763 762 764 773 775 775 779 786 794 800 807 814 820 826 832 836 841 844 847 850 853 855 857 859 859 859 861 863 865 868 869 870 870 871 872 873 873 873 873
778 774 785 821 816 803 782 796 770 760 757 755 754 755 773 774 772 780 789 797 804 811 818 822 828 833 838 842 844 847 851 854 856 856 856 859 859 861 863 866 868 869 869 870 872 872 872 873 873
772 786 758 783 782 784 768 765 759 755 761 759 756 757 764 770 769 776 785 794 800 807 814 819 824 830 834 838 842 845 848 851 851 853 857 858 859 859 862 864 865 867 868 868 870 870 872 872 873
769 757 787 781 816 813 772 771 773 775 772 766 762 760 760 769 778 773 781 789 795 803 810 817 821 826 831 835 839 842 844 847 850 853 856 856 858 859 859 862 863 864 865 866 868 868 869 871 870
776 775 772 771 783 818 803 798 771 779 772 768 762 757 765 768 776 774 780 786 792 799 805 812 818 823 827 831 834 837 841 844 847 850 851 853 855 856 857 858 860 862 863 864 865 866 867 867 868
761 760 758 790 816 779 827 786 769 774 770 764 761 760 760 772 778 779 783 786 791 796 802 807 813 818 823 827 830 834 836 839 842 844 847 849 851 853 854 856 857 858 860 861 862 863 863 865 865
Wind_Speed
4 4 2 5 5 3 10 7 12 13 12 5 9 1 10 10 8 8 19 13 16 14 13 11 12 12 13 14 15 16 16 16 15 16 16 16 16 15 15 14 14 14 14 16 17 16 14 14 14
4 3 4 3 4 9 8 9 14 10 11 13 9 8 4 8 10 15 14 16 14 14 13 11 11 13 13 14 14 15 16 16 16 16 16 15 16 15 15 15 13 13 16 16 14 16 17 17 16
4 2 3 3 0 8 10 10 15 10 13 7 5 8 4 6 14 8 20 17 15 13 12 10 11 13 14 13 14 15 15 15 14 15 14 15 15 15 15 15 15 15 15 15 16 16 16 16 15
3 1 4 4 10 5 8 12 14 15 9 3 10 9 8 11 8 14 19 17 16 13 14 10 12 11 13 14 15 14 15 15 15 15 15 15 15 14 15 15 15 15 16 16 15 16 15 15 15
3 2 1 7 10 11 10 13 13 13 7 7 0 9 12 7 12 21 18 15 15 13 13 11 12 12 14 15 14 14 14 14 15 15 14 14 15 14 14 15 15 14 15 16 15 15 14 13 14
3 3 3 7 12 11 10 9 9 7 9 8 13 17 9 12 18 17 16 14 13 12 12 11 9 12 13 14 13 13 13 13 13 14 14 14 14 14 14 14 13 14 14 14 15 14 14 14 13
1 1 3 11 13 12 8 6 6 6 8 9 12 13 9 16 18 16 15 13 12 11 10 11 10 9 11 12 13 12 12 12 13 12 14 14 14 14 13 12 12 13 12 13 14 12 11 11 12
1 2 4 3 9 9 4 7 6 4 8 11 9 7 16 19 18 17 15 14 12 11 10 10 11 11 11 11 14 14 13 12 13 14 13 15 14 13 13 12 11 11 10 11 11 12 12 11 10
1 2 5 4 5 6 5 6 5 4 10 7 3 7 22 23 20 17 15 13 13 11 10 9 11 10 11 13 14 17 13 11 13 13 14 10 12 11 11 10 9 9 8 9 9 8 9 10 9
3 2 4 6 7 4 4 2 5 7 10 9 10 15 24 22 20 17 15 14 13 12 12 9 11 11 12 12 13 16 14 12 10 11 11 11 10 9 11 9 8 9 7 7 6 5 7 6 5
2 2 6 8 10 7 2 3 3 9 7 10 14 20 21 20 17 14 13 12 13 13 11 11 11 11 10 14 13 14 14 11 10 11 10 11 11 10 10 8 7 6 6 4 4 2 2 4 4
6 7 4 7 11 2 7 2 4 3 6 3 16 19 19 16 15 14 13 13 13 12 13 12 11 11 12 11 10 13 12 10 11 10 10 12 11 9 8 8 7 6 5 3 2 4 3 3 3
5 7 7 6 5 7 5 5 3 7 5 14 16 17 16 14 14 12 11 12 13 13 13 13 12 10 12 11 10 10 10 10 11 10 10 9 9 7 6 6 6 5 5 5 5 5 5 5 6
6 10 10 8 7 9 7 4 4 6 8 13 15 15 15 13 13 12 11 12 13 13 13 14 13 11 10 11 10 9 9 10 10 10 9 7 7 5 6 5 6 6 4 4 3 4 4 6 10
12 12 10 6 5 6 11 3 2 4 5 12 15 13 12 12 11 11 11 13 13 13 14 15 15 13 12 10 10 10 11 11 10 10 8 5 4 5 5 5 5 5 3 2 2 2 4 8 10
5 7 6 5 7 8 7 5 13 8 9 12 15 13 12 12 12 11 12 12 13 14 15 15 15 14 13 12 11 11 11 10 10 10 7 5 5 5 5 7 6 4 2 1 1 5 6 6 9
7 3 3 6 5 5 10 3 16 12 7 10 14 14 13 12 12 12 12 12 14 14 16 15 14 15 14 13 11 11 10 9 10 9 7 6 6 5 5 7 5 3 3 3 3 6 6 7 8
8 4 3 5 7 8 7 3 13 12 12 13 14 15 14 14 15 15 13 14 15 16 15 13 13 14 13 12 11 10 10 10 10 8 7 7 6 4 5 5 4 3 3 5 4 6 6 5 5
2 2 1 4 8 8 7 6 11 16 14 13 12 14 17 15 16 17 15 15 16 17 16 15 14 15 14 14 14 13 13 12 9 8 7 6 5 3 6 4 3 2 3 4 4 5 4 5 4
4 2 4 5 6 7 4 8 10 12 17 14 16 19 17 18 15 17 17 18 18 18 18 15 14 14 14 14 13 13 14 13 10 9 8 7 7 4 4 3 3 2 3 3 3 2 4 3 4
8 5 3 6 7 8 6 10 12 12 12 11 21 20 20 18 16 16 19 19 18 19 19 17 15 16 16 15 14 12 11 10 9 9 9 9 8 6 4 3 3 3 2 3 2 1 3 3 3
10 4 2 1 6 4 4 2 12 14 16 14 22 19 18 19 17 16 20 20 20 20 18 18 16 17 18 17 15 15 15 14 12 11 9 9 9 6 5 3 3 4 3 2 1 2 3 4 2
3 1 5 5 8 9 8 7 7 14 17 19 22 22 21 19 17 16 20 22 20 20 20 19 16 16 18 18 15 15 14 12 12 10 10 9 9 8 7 5 4 5 5 3 2 2 3 3 5
4 6 5 6 7 10 3 9 6 8 16 16 22 22 21 20 18 18 21 21 21 20 20 20 20 17 18 16 15 17 16 12 12 12 12 11 12 12 10 8 6 6 6 5 4 1 1 1 2
11 11 8 6 6 6 2 6 8 3 3 11 17 23 20 20 19 18 16 20 22 21 22 21 21 20 19 19 16 16 15 15 12 10 12 10 11 13 12 11 9 8 7 7 6 4 2 2 2
15 16 10 4 6 6 3 5 7 8 6 9 13 16 21 22 20 19 20 22 24 23 23 22 22 21 21 20 19 17 13 12 13 13 10 12 11 11 9 11 11 10 8 8 8 8 8 6 4
13 11 13 5 12 6 6 5 8 3 8 2 8 12 18 23 20 20 22 24 25 24 23 24 22 21 21 22 20 17 15 16 15 12 13 12 10 11 11 12 11 11 11 9 10 10 8 7 7
11 9 9 9 4 5 5 2 8 11 10 5 7 8 13 19 16 17 20 24 25 25 24 22 22 22 21 20 20 18 17 17 16 13 14 14 10 12 9 11 12 12 13 11 11 11 10 10 10
8 11 9 2 6 3 3 3 7 8 9 10 4 6 12 15 15 16 18 22 24 23 23 23 22 22 23 21 21 19 18 17 15 13 14 15 13 12 12 12 12 13 14 13 12 12 10 11 11
9 12 12 6 8 3 5 2 5 6 7 10 4 4 4 5 10 13 13 15 19 23 22 23 22 22 23 22 21 20 19 17 17 15 13 12 11 12 12 13 13 13 15 15 15 14 13 12 13
Wind_Direction
175 194 246 231 226 193 118 112 110 122 132 111 113 98 75 26 7 81 127 128 131 131 126 117 115 110 103 100 99 101 101 104 103 104 98 96 96 94 95 98 99 99 96 90 88 91 92 98 99
196 226 251 261 205 125 105 122 130 140 122 120 113 125 78 72 82 116 122 134 132 127 124 118 118 110 106 104 103 102 104 107 98 101 98 96 95 92 92 95 96 96 90 87 85 81 88 92 94
179 243 268 290 113 96 114 137 129 117 131 135 105 52 40 81 119 104 127 133 130 123 119 119 114 111 107 109 108 108 104 107 102 97 99 94 94 91 93 97 96 94 92 89 91 96 97 94 96
258 108 224 241 108 87 112 135 130 135 129 59 114 92 89 110 106 124 134 134 128 127 115 118 109 104 111 108 106 106 106 106 104 102 95 93 93 92 95 97 96 92 91 94 93 97 98 97 100
242 189 175 95 99 100 106 125 136 144 117 120 75 110 109 99 115 131 133 135 128 127 124 118 112 112 113 113 110 107 104 104 102 102 102 106 99 100 95 96 98 94 93 95 92 101 96 99 101
226 253 155 129 112 108 109 131 135 117 131 118 119 124 92 121 134 136 135 136 133 125 122 122 113 110 114 119 115 112 108 105 106 103 102 100 97 97 97 96 97 92 89 87 94 104 95 94 97
289 341 98 131 125 114 96 139 126 145 139 131 135 133 119 141 134 137 139 134 132 132 125 129 125 120 114 121 118 108 109 121 114 108 103 101 99 96 99 105 103 97 94 91 94 98 96 89 84
247 31 126 129 154 115 83 94 112 112 75 115 140 156 154 139 143 142 141 138 134 137 133 135 140 129 129 119 114 109 114 112 110 108 105 109 102 99 94 100 106 102 97 92 91 88 84 88 79
263 152 155 165 142 110 95 124 83 95 141 139 92 150 136 147 148 148 145 142 147 142 138 143 139 139 130 129 123 113 117 110 108 108 110 108 106 104 103 119 105 111 106 97 92 88 76 76 76
282 139 135 160 142 164 60 47 115 144 139 133 109 109 136 150 154 157 159 158 153 149 144 150 138 143 136 129 127 118 120 113 110 114 111 112 113 100 112 118 123 117 109 99 91 78 66 66 101
84 68 121 147 147 187 170 133 161 149 164 153 148 141 150 157 163 165 162 160 157 149 150 150 150 148 146 141 136 123 125 112 113 118 119 120 119 115 113 112 119 118 103 118 84 51 62 71 86
109 75 59 133 162 146 166 331 90 78 29 137 144 147 152 165 167 165 161 159 151 150 155 150 154 151 150 142 136 127 129 132 133 131 125 127 126 122 118 117 121 124 116 105 86 84 55 71 110
118 103 92 122 137 144 25 44 97 53 85 131 138 150 157 167 161 153 152 153 159 161 158 155 157 158 158 145 142 139 135 139 139 136 134 133 129 123 123 123 124 117 113 103 92 73 66 81 98
115 102 111 132 114 134 98 20 42 7 127 143 152 159 165 166 156 151 157 158 163 163 162 156 162 160 162 145 149 146 147 145 144 142 145 137 132 127 126 123 123 117 106 99 84 79 76 95 98
132 123 122 137 143 102 105 335 143 295 237 166 175 171 168 167 164 163 160 162 163 167 161 161 163 165 163 159 153 157 160 156 152 152 147 140 127 128 130 128 129 114 106 115 118 123 114 114 111
198 183 192 124 174 151 190 184 213 215 261 187 182 180 180 170 175 172 165 168 157 157 161 164 167 168 166 161 161 160 161 162 160 157 155 140 133 136 135 138 122 123 109 113 151 159 132 125 129
187 222 186 155 201 165 209 166 181 192 214 263 192 184 192 182 188 179 169 172 162 163 164 166 164 163 162 160 166 166 167 166 164 163 162 150 149 147 142 134 118 104 95 84 135 147 146 140 141
173 207 204 163 175 207 199 162 176 185 195 219 240 196 195 196 189 179 174 172 172 170 174 172 162 157 163 168 168 172 171 168 167 170 169 163 163 162 156 138 123 101 108 92 119 136 145 155 160
39 334 1 124 168 197 206 209 182 193 202 215 234 230 193 208 180 174 177 175 175 177 180 176 172 161 156 157 163 169 172 169 174 176 171 174 158 175 156 147 152 129 110 80 127 147 160 157 167
231 170 111 120 158 243 200 207 179 195 209 214 227 240 208 202 186 178 182 178 180 182 187 183 183 177 172 167 166 173 174 176 177 181 181 176 184 187 173 178 187 184 142 102 118 181 164 170 180
227 267 139 348 184 229 246 226 181 204 190 210 222 228 220 200 196 180 188 185 184 183 188 187 190 189 186 175 172 167 165 166 174 182 194 193 191 205 192 208 212 221 204 148 97 162 258 149 166
220 198 218 222 256 309 226 292 196 186 196 207 206 218 214 207 201 185 189 192 189 184 188 186 190 189 189 187 183 180 178 180 185 184 185 183 184 185 193 217 217 219 220 224 203 329 325 292 182
337 214 192 273 272 285 212 260 121 178 202 198 212 210 208 200 206 200 192 192 192 185 186 187 190 187 188 196 193 188 206 183 188 181 180 192 188 193 195 193 202 215 217 219 231 313 325 307 294
112 203 224 255 271 261 206 253 122 165 228 210 201 210 210 205 199 199 200 192 195 189 190 187 187 191 197 197 201 198 203 202 191 191 191 194 197 201 203 203 204 208 217 223 225 256 19 4 24
208 224 236 233 222 258 84 255 67 80 260 244 205 203 208 212 196 201 194 194 195 193 192 191 192 195 196 201 204 206 207 204 205 202 215 203 201 206 203 209 211 215 220 217 216 219 226 254 296
216 234 251 255 277 315 161 227 110 44 350 240 241 209 203 216 204 199 191 195 194 195 197 194 195 198 197 204 211 214 212 214 221 213 221 215 218 212 207 214 213 214 217 215 219 226 232 225 246
191 235 278 278 287 257 170 142 160 21 12 324 209 213 197 208 214 196 189 197 193 194 198 198 197 201 205 209 212 219 217 218 221 219 214 224 234 224 217 216 222 226 223 221 220 226 230 236 242
277 225 215 230 276 265 149 156 59 356 358 353 246 218 220 190 215 199 195 197 195 195 197 201 201 201 203 208 211 215 217 219 226 222 222 227 221 237 244 231 224 220 225 224 222 224 226 232 233
187 221 248 256 288 291 283 358 20 4 355 338 245 224 188 193 205 206 200 200 196 197 198 199 203 203 203 208 211 215 217 222 227 225 224 227 232 233 227 226 231 229 227 223 225 234 242 233 237
297 282 180 181 271 250 224 148 37 27 14 4 45 196 184 165 182 212 205 212 205 199 201 200 200 204 208 208 210 213 216 221 224 226 229 229 221 223 226 232 232 232 230 230 228 234 247 244 242